| time (UTC) | temp C | wind direction | speed KPH | gust KPH | rain 1hr cm | rain 24hr cm | rain mn cm | humidity % | barometer mb |
| 20260502162005 | 12 | 2 | 8.0 | 0.0 | 0.00 | 0.00 | 0.00 | 100 | 1020.8 |
| 20260502161459 | 12 | 2 | 8.0 | 0.0 | 0.00 | 0.00 | 0.00 | 100 | 1020.8 |
| 20260502160953 | 12 | 344 | 8.0 | 0.0 | 0.00 | 0.00 | 0.00 | 100 | 1020.8 |
| 20260502160447 | 12 | 341 | 9.7 | 0.0 | 0.00 | 0.00 | 0.00 | 100 | 1020.9 |
| 20260502151853 | 10 | 353 | 6.4 | 0.0 | 0.00 | 0.00 | 0.00 | 100 | 1021.2 |
| 20260502151347 | 9 | 353 | 6.4 | 0.0 | 0.00 | 0.00 | 0.00 | 100 | 1021.2 |
| 20260502150841 | 9 | 19 | 3.2 | 0.0 | 0.00 | 0.00 | 0.00 | 100 | 1021.2 |
| 20260502150335 | 8 | 5 | 4.8 | 0.0 | 0.00 | 0.00 | 0.00 | 100 | 1021.3 |
| 20260502130617 | 3 | 12 | 0.0 | 0.0 | 0.00 | 0.00 | 0.00 | 100 | 1022.8 |
| 20260502130111 | 2 | 116 | 0.0 | 0.0 | 0.00 | 0.00 | 0.00 | 100 | 1022.8 |
| 20260502123541 | 2 | 69 | 1.6 | 0.0 | 0.00 | 0.00 | 0.00 | 100 | 1022.7 |
| 20260502123035 | 2 | 105 | 1.6 | 0.0 | 0.00 | 0.00 | 0.00 | 100 | 1022.7 |
| 20260502122529 | 2 | 62 | 0.0 | 0.0 | 0.00 | 0.00 | 0.00 | 100 | 1022.6 |
| 20260502122023 | 2 | 336 | 1.6 | 0.0 | 0.00 | 0.00 | 0.00 | 100 | 1022.6 |
| 20260502121517 | 2 | 353 | 3.2 | 0.0 | 0.00 | 0.00 | 0.00 | 100 | 1022.6 |
| 20260502121011 | 2 | 3 | 1.6 | 0.0 | 0.00 | 0.00 | 0.00 | 100 | 1022.5 |
| 20260502120505 | 3 | 19 | 3.2 | 0.0 | 0.00 | 0.00 | 0.00 | 100 | 1022.4 |
| 20260502115453 | 5 | 336 | 1.6 | 0.0 | 0.00 | 0.00 | 0.00 | 100 | 1022.4 |
| 20260502114947 | 4 | 326 | 3.2 | 0.0 | 0.00 | 0.00 | 0.00 | 100 | 1022.4 |
| 20260502113935 | 3 | 321 | 6.4 | 0.0 | 0.00 | 0.00 | 0.00 | 100 | 1022.4 |
| 20260502113429 | 3 | 313 | 1.6 | 0.0 | 0.00 | 0.00 | 0.00 | 100 | 1022.4 |
| 20260502112923 | 3 | 179 | 0.0 | 0.0 | 0.00 | 0.00 | 0.00 | 100 | 1022.4 |
| 20260502112417 | 3 | 84 | 0.0 | 0.0 | 0.00 | 0.00 | 0.00 | 100 | 1022.3 |
| 20260502111911 | 3 | 92 | 1.6 | 0.0 | 0.00 | 0.00 | 0.00 | 100 | 1022.3 |
| 20260502111405 | 4 | 148 | 3.2 | 0.0 | 0.00 | 0.00 | 0.00 | 100 | 1022.3 |
| 20260502110859 | 5 | 153 | 4.8 | 0.0 | 0.00 | 0.00 | 0.00 | 100 | 1022.3 |
| 20260502110353 | 5 | 161 | 3.2 | 0.0 | 0.00 | 0.00 | 0.00 | 100 | 1022.3 |
| 20260502105847 | 4 | 157 | 1.6 | 0.0 | 0.00 | 0.00 | 0.00 | 100 | 1022.3 |
| 20260502105341 | 3 | 173 | 1.6 | 0.0 | 0.00 | 0.00 | 0.00 | 100 | 1022.4 |
| 20260502104835 | 3 | 179 | 1.6 | 0.0 | 0.00 | 0.00 | 0.00 | 100 | 1022.3 |
| 20260502104329 | 3 | 168 | 1.6 | 0.0 | 0.00 | 0.00 | 0.00 | 100 | 1022.3 |
| 20260502103823 | 3 | 206 | 3.2 | 0.0 | 0.00 | 0.00 | 0.00 | 100 | 1022.2 |
| 20260502103317 | 3 | 198 | 4.8 | 0.0 | 0.00 | 0.00 | 0.00 | 100 | 1022.2 |
| 20260502102811 | 4 | 192 | 3.2 | 0.0 | 0.00 | 0.00 | 0.00 | 100 | 1022.2 |
| 20260502102306 | 5 | 140 | 1.6 | 0.0 | 0.00 | 0.00 | 0.00 | 100 | 1022.2 |
| 20260502101759 | 5 | 149 | 4.8 | 0.0 | 0.00 | 0.00 | 0.00 | 100 | 1022.1 |
| 20260502101253 | 5 | 132 | 4.8 | 0.0 | 0.00 | 0.00 | 0.00 | 100 | 1022.1 |
| 20260502100747 | 5 | 130 | 6.4 | 17.7 | 0.00 | 0.00 | 0.00 | 98 | 1022.1 |
| 20260502100241 | 6 | 125 | 6.4 | 17.7 | 0.00 | 0.00 | 0.00 | 100 | 1022.1 |
| 20260502091141 | 5 | 201 | 3.2 | 0.0 | 0.00 | 0.00 | 0.00 | 100 | 1022.1 |
| 20260502090635 | 5 | 156 | 0.0 | 0.0 | 0.00 | 0.00 | 0.00 | 100 | 1022.0 |
| 20260502090129 | 5 | 140 | 1.6 | 0.0 | 0.00 | 0.00 | 0.00 | 100 | 1022.0 |
| 20260502071423 | 7 | 160 | 3.2 | 0.0 | 0.00 | 0.00 | 0.00 | 100 | 1021.7 |
| 20260502070917 | 8 | 152 | 3.2 | 0.0 | 0.00 | 0.00 | 0.00 | 100 | 1021.7 |
| 20260502065859 | 7 | 127 | 1.6 | 0.0 | 0.00 | 0.00 | 0.00 | 100 | 1021.6 |
| 20260502065353 | 8 | 98 | 3.2 | 0.0 | 0.00 | 0.00 | 0.00 | 100 | 1021.7 |
| 20260502064847 | 7 | 137 | 4.8 | 0.0 | 0.00 | 0.00 | 0.00 | 100 | 1021.6 |
| 20260502064341 | 7 | 165 | 9.7 | 0.0 | 0.00 | 0.00 | 0.00 | 100 | 1021.5 |
| 20260502063835 | 7 | 167 | 8.0 | 0.0 | 0.00 | 0.00 | 0.00 | 100 | 1021.5 |
| 20260502063329 | 7 | 202 | 9.7 | 0.0 | 0.00 | 0.00 | 0.00 | 100 | 1021.4 |
| 20260502062823 | 9 | 158 | 6.4 | 19.3 | 0.00 | 0.00 | 0.00 | 100 | 1021.3 |
| 20260502062317 | 9 | 146 | 8.0 | 0.0 | 0.00 | 0.00 | 0.00 | 100 | 1021.2 |
| 20260502061811 | 8 | 146 | 6.4 | 0.0 | 0.00 | 0.00 | 0.00 | 100 | 1021.3 |
| 20260502061305 | 8 | 153 | 6.4 | 0.0 | 0.00 | 0.00 | 0.00 | 100 | 1021.2 |
| 20260502060759 | 8 | 159 | 8.0 | 0.0 | 0.00 | 0.00 | 0.00 | 100 | 1021.2 |
| 20260502060253 | 8 | 171 | 8.0 | 0.0 | 0.00 | 0.00 | 0.00 | 100 | 1021.2 |
| 20260502055747 | 8 | 164 | 9.7 | 0.0 | 0.00 | 0.00 | 0.00 | 100 | 1021.2 |
| 20260502055241 | 8 | 143 | 8.0 | 0.0 | 0.00 | 0.00 | 0.00 | 100 | 1021.2 |
| 20260502054735 | 8 | 144 | 6.4 | 0.0 | 0.00 | 0.00 | 0.00 | 100 | 1021.1 |
| 20260502054229 | 7 | 159 | 4.8 | 0.0 | 0.00 | 0.00 | 0.00 | 100 | 1021.1 |
| 20260502053723 | 7 | 167 | 6.4 | 0.0 | 0.00 | 0.00 | 0.00 | 100 | 1021.1 |
| 20260502053217 | 7 | 182 | 8.0 | 0.0 | 0.00 | 0.00 | 0.00 | 100 | 1021.1 |
| 20260502052711 | 7 | 205 | 6.4 | 0.0 | 0.00 | 0.00 | 0.00 | 100 | 1021.0 |
| 20260502052205 | 8 | 163 | 6.4 | 0.0 | 0.00 | 0.00 | 0.00 | 100 | 1020.9 |
| 20260502051659 | 9 | 152 | 4.8 | 0.0 | 0.00 | 0.00 | 0.00 | 100 | 1020.8 |
| 20260502051153 | 9 | 140 | 8.0 | 19.3 | 0.00 | 0.00 | 0.00 | 100 | 1020.8 |
| 20260502050647 | 9 | 149 | 6.4 | 0.0 | 0.00 | 0.00 | 0.00 | 100 | 1020.8 |
| 20260502050141 | 9 | 149 | 6.4 | 0.0 | 0.00 | 0.00 | 0.00 | 100 | 1020.9 |
| 20260502045635 | 9 | 165 | 6.4 | 0.0 | 0.00 | 0.00 | 0.00 | 100 | 1020.9 |
| 20260502045129 | 10 | 141 | 8.0 | 0.0 | 0.00 | 0.00 | 0.00 | 100 | 1020.9 |
| 20260502044623 | 9 | 140 | 8.0 | 0.0 | 0.00 | 0.00 | 0.00 | 100 | 1020.9 |
| 20260502044117 | 8 | 140 | 6.4 | 0.0 | 0.00 | 0.00 | 0.00 | 100 | 1020.9 |
| 20260502043611 | 8 | 154 | 3.2 | 0.0 | 0.00 | 0.00 | 0.00 | 100 | 1020.9 |
| 20260502043105 | 8 | 147 | 4.8 | 0.0 | 0.00 | 0.00 | 0.00 | 100 | 1020.9 |
| 20260502042559 | 8 | 148 | 4.8 | 0.0 | 0.00 | 0.00 | 0.00 | 100 | 1020.9 |
| 20260502042053 | 9 | 161 | 6.4 | 0.0 | 0.00 | 0.00 | 0.00 | 100 | 1020.9 |
| 20260502041547 | 8 | 161 | 4.8 | 0.0 | 0.00 | 0.00 | 0.00 | 100 | 1020.8 |
| 20260502041041 | 8 | 146 | 4.8 | 0.0 | 0.00 | 0.00 | 0.00 | 100 | 1020.8 |
| 20260502040535 | 8 | 133 | 4.8 | 0.0 | 0.00 | 0.00 | 0.00 | 100 | 1020.7 |
| 20260502040029 | 8 | 130 | 4.8 | 0.0 | 0.00 | 0.00 | 0.00 | 100 | 1020.6 |
| 20260502035523 | 9 | 138 | 4.8 | 0.0 | 0.00 | 0.00 | 0.00 | 100 | 1020.6 |
| 20260502035017 | 9 | 132 | 3.2 | 0.0 | 0.00 | 0.00 | 0.00 | 100 | 1020.5 |
| 20260502034511 | 9 | 135 | 4.8 | 0.0 | 0.00 | 0.00 | 0.00 | 100 | 1020.4 |
| 20260502034005 | 10 | 129 | 4.8 | 0.0 | 0.00 | 0.00 | 0.00 | 100 | 1020.3 |
| 20260502033459 | 11 | 127 | 1.6 | 0.0 | 0.00 | 0.00 | 0.00 | 100 | 1020.2 |
| 20260502032953 | 11 | 157 | 1.6 | 0.0 | 0.00 | 0.00 | 0.00 | 100 | 1020.2 |
| 20260502032447 | 11 | 162 | 0.0 | 0.0 | 0.00 | 0.00 | 0.00 | 100 | 1020.1 |
| 20260502031941 | 11 | 160 | 0.0 | 0.0 | 0.00 | 0.00 | 0.00 | 100 | 1020.0 |
| 20260502031435 | 11 | 149 | 1.6 | 0.0 | 0.00 | 0.00 | 0.00 | 100 | 1020.0 |
| 20260502030929 | 11 | 127 | 1.6 | 0.0 | 0.00 | 0.00 | 0.00 | 100 | 1019.9 |
| 20260502030423 | 11 | 146 | 4.8 | 0.0 | 0.00 | 0.00 | 0.00 | 100 | 1019.7 |
| 20260502025917 | 11 | 168 | 0.0 | 0.0 | 0.00 | 0.00 | 0.00 | 100 | 1019.6 |
| 20260502025411 | 11 | 190 | 0.0 | 0.0 | 0.00 | 0.00 | 0.00 | 100 | 1019.5 |
| 20260502024905 | 12 | 189 | 0.0 | 0.0 | 0.00 | 0.00 | 0.00 | 100 | 1019.4 |
| 20260502024359 | 12 | 165 | 0.0 | 0.0 | 0.00 | 0.00 | 0.00 | 100 | 1019.3 |
| 20260502023853 | 13 | 232 | 0.0 | 0.0 | 0.00 | 0.00 | 0.00 | 100 | 1019.3 |
| 20260502023347 | 13 | 236 | 1.6 | 0.0 | 0.00 | 0.00 | 0.00 | 100 | 1019.2 |
| 20260502022841 | 13 | 230 | 0.0 | 0.0 | 0.00 | 0.00 | 0.00 | 100 | 1019.1 |
| 20260502022335 | 13 | 212 | 0.0 | 0.0 | 0.00 | 0.00 | 0.00 | 100 | 1019.1 |
| 20260502021829 | 13 | 237 | 1.6 | 0.0 | 0.00 | 0.00 | 0.00 | 100 | 1019.0 |
| 20260502021323 | 14 | 257 | 1.6 | 0.0 | 0.00 | 0.00 | 0.00 | 100 | 1018.9 |
| 20260502020817 | 14 | 251 | 1.6 | 0.0 | 0.00 | 0.00 | 0.00 | 100 | 1018.9 |
| 20260502020311 | 15 | 247 | 1.6 | 0.0 | 0.00 | 0.00 | 0.00 | 100 | 1018.8 |
| 20260502015805 | 15 | 253 | 0.0 | 0.0 | 0.00 | 0.00 | 0.00 | 100 | 1018.7 |
| 20260502015259 | 16 | 256 | 3.2 | 0.0 | 0.00 | 0.00 | 0.00 | 100 | 1018.6 |
| 20260502014753 | 16 | 263 | 1.6 | 0.0 | 0.00 | 0.00 | 0.00 | 100 | 1018.6 |
| 20260502014247 | 17 | 262 | 1.6 | 0.0 | 0.00 | 0.00 | 0.00 | 100 | 1018.6 |
| 20260502013741 | 18 | 311 | 4.8 | 0.0 | 0.00 | 0.00 | 0.00 | 100 | 1018.5 |
| 20260502013235 | 18 | 324 | 4.8 | 0.0 | 0.00 | 0.00 | 0.00 | 100 | 1018.4 |
| 20260502012729 | 18 | 316 | 4.8 | 0.0 | 0.00 | 0.00 | 0.00 | 100 | 1018.3 |
| 20260502012223 | 18 | 317 | 4.8 | 0.0 | 0.00 | 0.00 | 0.00 | 100 | 1018.2 |
| 20260502011717 | 18 | 316 | 4.8 | 0.0 | 0.00 | 0.00 | 0.00 | 100 | 1018.2 |
| 20260502011211 | 18 | 319 | 6.4 | 0.0 | 0.00 | 0.00 | 0.00 | 100 | 1018.1 |
| 20260502010705 | 18 | 310 | 4.8 | 0.0 | 0.00 | 0.00 | 0.00 | 100 | 1018.2 |
| 20260502010159 | 18 | 332 | 3.2 | 0.0 | 0.00 | 0.00 | 0.00 | 100 | 1018.1 |
| 20260502005653 | 18 | 327 | 6.4 | 0.0 | 0.00 | 0.00 | 0.00 | 100 | 1018.1 |
| 20260502005147 | 18 | 347 | 4.8 | 0.0 | 0.00 | 0.00 | 0.00 | 100 | 1018.1 |
| 20260502004641 | 18 | 309 | 6.4 | 0.0 | 0.00 | 0.00 | 0.00 | 100 | 1018.0 |
| 20260502004135 | 18 | 324 | 8.0 | 0.0 | 0.00 | 0.00 | 0.00 | 100 | 1018.0 |
| 20260502003629 | 18 | 330 | 6.4 | 0.0 | 0.00 | 0.00 | 0.00 | 100 | 1018.0 |
| 20260502003123 | 18 | 326 | 9.7 | 0.0 | 0.00 | 0.00 | 0.00 | 100 | 1018.0 |
| 20260502002617 | 18 | 333 | 6.4 | 0.0 | 0.00 | 0.00 | 0.00 | 100 | 1018.0 |
| 20260502002111 | 18 | 337 | 6.4 | 0.0 | 0.00 | 0.00 | 0.00 | 100 | 1018.0 |
| 20260502001605 | 19 | 303 | 3.2 | 0.0 | 0.00 | 0.00 | 0.00 | 100 | 1018.1 |
| 20260502001059 | 19 | 308 | 4.8 | 0.0 | 0.00 | 0.00 | 0.00 | 100 | 1018.1 |
| 20260502000553 | 18 | 320 | 8.0 | 0.0 | 0.00 | 0.00 | 0.00 | 100 | 1018.1 |
| 20260502000047 | 19 | 344 | 6.4 | 0.0 | 0.00 | 0.00 | 0.00 | 100 | 1018.1 |
| 20260501235541 | 18 | 329 | 6.4 | 0.0 | 0.00 | 0.00 | 0.00 | 100 | 1018.2 |
| 20260501235035 | 18 | 340 | 9.7 | 0.0 | 0.00 | 0.00 | 0.00 | 100 | 1018.2 |
| 20260501234529 | 19 | 305 | 8.0 | 0.0 | 0.00 | 0.00 | 0.00 | 100 | 1018.2 |
| 20260501234023 | 19 | 284 | 3.2 | 0.0 | 0.00 | 0.00 | 0.00 | 100 | 1018.2 |
| 20260501233517 | 18 | 304 | 9.7 | 0.0 | 0.00 | 0.00 | 0.00 | 100 | 1018.3 |
| 20260501233011 | 18 | 331 | 9.7 | 0.0 | 0.00 | 0.00 | 0.00 | 100 | 1018.3 |
| 20260501232505 | 18 | 299 | 8.0 | 0.0 | 0.00 | 0.00 | 0.00 | 100 | 1018.2 |
| 20260501231959 | 18 | 310 | 9.7 | 0.0 | 0.00 | 0.00 | 0.00 | 100 | 1018.2 |
| 20260501231453 | 18 | 325 | 3.2 | 0.0 | 0.00 | 0.00 | 0.00 | 100 | 1018.2 |
| 20260501230947 | 18 | 296 | 6.4 | 0.0 | 0.00 | 0.00 | 0.00 | 100 | 1018.2 |
| 20260501230441 | 18 | 305 | 8.0 | 17.7 | 0.00 | 0.00 | 0.00 | 100 | 1018.3 |
| 20260501225935 | 18 | 324 | 9.7 | 0.0 | 0.00 | 0.00 | 0.00 | 100 | 1018.3 |
| 20260501225429 | 18 | 314 | 6.4 | 16.1 | 0.00 | 0.00 | 0.00 | 100 | 1018.3 |
| 20260501224923 | 18 | 260 | 3.2 | 0.0 | 0.00 | 0.00 | 0.00 | 100 | 1018.3 |
| 20260501224417 | 19 | 283 | 4.8 | 0.0 | 0.00 | 0.00 | 0.00 | 86 | 1018.4 |
| 20260501223911 | 18 | 271 | 1.6 | 16.1 | 0.00 | 0.00 | 0.00 | 100 | 1018.5 |
| 20260501223405 | 18 | 316 | 9.7 | 0.0 | 0.00 | 0.00 | 0.00 | 100 | 1018.6 |
| 20260501222859 | 18 | 300 | 4.8 | 0.0 | 0.00 | 0.00 | 0.00 | 100 | 1018.6 |
| 20260501222354 | 18 | 324 | 6.4 | 0.0 | 0.00 | 0.00 | 0.00 | 100 | 1018.7 |
| 20260501221847 | 18 | 304 | 8.0 | 0.0 | 0.00 | 0.00 | 0.00 | 100 | 1018.8 |
| 20260501221341 | 18 | 291 | 8.0 | 0.0 | 0.00 | 0.00 | 0.00 | 100 | 1018.9 |
| 20260501220835 | 18 | 248 | 4.8 | 0.0 | 0.00 | 0.00 | 0.00 | 100 | 1018.9 |
| 20260501220329 | 18 | 223 | 3.2 | 19.3 | 0.00 | 0.00 | 0.00 | 100 | 1019.0 |
| 20260501215317 | 18 | 338 | 6.4 | 17.7 | 0.00 | 0.00 | 0.00 | 100 | 1019.2 |
| 20260501214811 | 17 | 317 | 9.7 | 17.7 | 0.00 | 0.00 | 0.00 | 100 | 1019.2 |
| 20260501214305 | 18 | 276 | 6.4 | 16.1 | 0.00 | 0.00 | 0.00 | 100 | 1019.3 |
| 20260501213759 | 18 | 300 | 8.0 | 16.1 | 0.00 | 0.00 | 0.00 | 100 | 1019.4 |
| 20260501213253 | 18 | 318 | 9.7 | 16.1 | 0.00 | 0.00 | 0.00 | 100 | 1019.4 |
| 20260501212747 | 18 | 323 | 4.8 | 16.1 | 0.00 | 0.00 | 0.00 | 100 | 1019.4 |
| 20260501212241 | 18 | 287 | 8.0 | 16.1 | 0.00 | 0.00 | 0.00 | 100 | 1019.4 |
| 20260501211735 | 17 | 0 | 11.3 | 0.0 | 0.00 | 0.00 | 0.00 | 100 | 1019.4 |
| 20260501211229 | 18 | 277 | 3.2 | 0.0 | 0.00 | 0.00 | 0.00 | 100 | 1019.5 |
| 20260501210723 | 18 | 264 | 3.2 | 0.0 | 0.00 | 0.00 | 0.00 | 100 | 1019.5 |
| 20260501210218 | 17 | 266 | 1.6 | 0.0 | 0.00 | 0.00 | 0.00 | 100 | 1019.5 |
| 20260501205711 | 18 | 276 | 3.2 | 16.1 | 0.00 | 0.00 | 0.00 | 100 | 1019.5 |
| 20260501205205 | 17 | 298 | 8.0 | 16.1 | 0.00 | 0.00 | 0.00 | 98 | 1019.5 |
| 20260501204659 | 17 | 264 | 3.2 | 17.7 | 0.00 | 0.00 | 0.00 | 100 | 1019.6 |
| 20260501204153 | 17 | 340 | 9.7 | 17.7 | 0.00 | 0.00 | 0.00 | 100 | 1019.6 |
| 20260501203647 | 17 | 307 | 3.2 | 17.7 | 0.00 | 0.00 | 0.00 | 100 | 1019.5 |
| 20260501203141 | 17 | 359 | 0.0 | 0.0 | 0.00 | 0.00 | 0.00 | 100 | 1019.5 |
| 20260501202635 | 17 | 326 | 6.4 | 0.0 | 0.00 | 0.00 | 0.00 | 100 | 1019.5 |
| 20260501202129 | 17 | 345 | 9.7 | 19.3 | 0.00 | 0.00 | 0.00 | 100 | 1019.5 |
| 20260501201623 | 16 | 303 | 12.9 | 19.3 | 0.00 | 0.00 | 0.00 | 100 | 1019.5 |
| 20260501201117 | 17 | 312 | 6.4 | 0.0 | 0.00 | 0.00 | 0.00 | 100 | 1019.4 |
| 20260501200611 | 16 | 299 | 3.2 | 17.7 | 0.00 | 0.00 | 0.00 | 100 | 1019.5 |
| 20260501200105 | 16 | 348 | 14.5 | 17.7 | 0.00 | 0.00 | 0.00 | 100 | 1019.5 |
| 20260501195559 | 17 | 307 | 3.2 | 0.0 | 0.00 | 0.00 | 0.00 | 99 | 1019.6 |
| 20260501195053 | 16 | 12 | 4.8 | 0.0 | 0.00 | 0.00 | 0.00 | 100 | 1019.7 |
| 20260501194547 | 16 | 349 | 4.8 | 17.7 | 0.00 | 0.00 | 0.00 | 100 | 1019.7 |
| 20260501194041 | 16 | 356 | 11.3 | 16.1 | 0.00 | 0.00 | 0.00 | 100 | 1019.7 |
| 20260501193535 | 15 | 14 | 6.4 | 17.7 | 0.00 | 0.00 | 0.00 | 100 | 1019.8 |
| 20260501193029 | 16 | 359 | 4.8 | 17.7 | 0.00 | 0.00 | 0.00 | 100 | 1019.8 |
| 20260501192523 | 16 | 1 | 11.3 | 0.0 | 0.00 | 0.00 | 0.00 | 100 | 1019.8 |
| 20260501192017 | 16 | 356 | 12.9 | 17.7 | 0.00 | 0.00 | 0.00 | 100 | 1019.8 |
| 20260501191511 | 16 | 353 | 6.4 | 0.0 | 0.00 | 0.00 | 0.00 | 100 | 1019.8 |
| 20260501191005 | 16 | 327 | 6.4 | 0.0 | 0.00 | 0.00 | 0.00 | 100 | 1019.9 |
| 20260501190459 | 16 | 333 | 6.4 | 0.0 | 0.00 | 0.00 | 0.00 | 100 | 1020.0 |
| 20260501185953 | 16 | 337 | 9.7 | 0.0 | 0.00 | 0.00 | 0.00 | 100 | 1020.0 |
| 20260501185447 | 15 | 337 | 8.0 | 0.0 | 0.00 | 0.00 | 0.00 | 100 | 1020.0 |
| 20260501184941 | 16 | 319 | 9.7 | 16.1 | 0.00 | 0.00 | 0.00 | 100 | 1020.0 |
| 20260501184435 | 16 | 299 | 4.8 | 0.0 | 0.00 | 0.00 | 0.00 | 100 | 1020.1 |
| 20260501183929 | 15 | 306 | 8.0 | 19.3 | 0.00 | 0.00 | 0.00 | 100 | 1020.2 |
| 20260501183423 | 16 | 333 | 8.0 | 19.3 | 0.00 | 0.00 | 0.00 | 100 | 1020.2 |
| 20260501182917 | 15 | 336 | 6.4 | 0.0 | 0.00 | 0.00 | 0.00 | 100 | 1020.3 |
| 20260501182411 | 15 | 82 | 1.6 | 0.0 | 0.00 | 0.00 | 0.00 | 100 | 1020.3 |
| 20260501181905 | 14 | 27 | 6.4 | 0.0 | 0.00 | 0.00 | 0.00 | 100 | 1020.4 |
| 20260501181359 | 15 | 9 | 9.7 | 0.0 | 0.00 | 0.00 | 0.00 | 100 | 1020.4 |
| 20260501180853 | 15 | 358 | 9.7 | 0.0 | 0.00 | 0.00 | 0.00 | 100 | 1020.4 |
| 20260501180347 | 14 | 220 | 3.2 | 0.0 | 0.00 | 0.00 | 0.00 | 100 | 1020.4 |
| 20260501175841 | 15 | 304 | 6.4 | 0.0 | 0.00 | 0.00 | 0.00 | 100 | 1020.4 |
| 20260501175336 | 15 | 321 | 4.8 | 0.0 | 0.00 | 0.00 | 0.00 | 100 | 1020.4 |
| 20260501174829 | 15 | 50 | 3.2 | 0.0 | 0.00 | 0.00 | 0.00 | 100 | 1020.5 |
| 20260501174323 | 13 | 169 | 4.8 | 0.0 | 0.00 | 0.00 | 0.00 | 100 | 1020.5 |
| 20260501173817 | 13 | 168 | 3.2 | 0.0 | 0.00 | 0.00 | 0.00 | 100 | 1020.6 |
| 20260501173311 | 14 | 264 | 1.6 | 0.0 | 0.00 | 0.00 | 0.00 | 100 | 1020.6 |
| 20260501172805 | 13 | 115 | 0.0 | 0.0 | 0.00 | 0.00 | 0.00 | 100 | 1020.7 |
| 20260501171754 | 13 | 194 | 3.2 | 0.0 | 0.00 | 0.00 | 0.00 | 100 | 1020.8 |
| 20260501171247 | 13 | 260 | 0.0 | 0.0 | 0.00 | 0.00 | 0.00 | 100 | 1020.9 |
| 20260501170741 | 12 | 192 | 3.2 | 0.0 | 0.00 | 0.00 | 0.00 | 100 | 1021.0 |
| 20260501170235 | 12 | 210 | 3.2 | 0.0 | 0.00 | 0.00 | 0.00 | 100 | 1021.1 |
| 20260501165729 | 13 | 325 | 4.8 | 0.0 | 0.00 | 0.00 | 0.00 | 100 | 1021.2 |
| 20260501165223 | 12 | 331 | 3.2 | 0.0 | 0.00 | 0.00 | 0.00 | 100 | 1021.2 |
| 20260501164717 | 12 | 319 | 3.2 | 0.0 | 0.00 | 0.00 | 0.00 | 100 | 1021.3 |
| 20260501164211 | 12 | 306 | 6.4 | 0.0 | 0.00 | 0.00 | 0.00 | 100 | 1021.3 |
| 20260501163705 | 12 | 332 | 6.4 | 0.0 | 0.00 | 0.00 | 0.00 | 100 | 1021.4 |
| 20260501163159 | 12 | 325 | 6.4 | 0.0 | 0.00 | 0.00 | 0.00 | 100 | 1021.4 |
| 20260501162653 | 12 | 312 | 4.8 | 0.0 | 0.00 | 0.00 | 0.00 | 100 | 1021.4 |